This is the latest recevied weather packets stored in our database for station/object W5MAI. If no packets are shown the sender has not sent any weather packets the latest 10 day(s).
| Time | Temp. | Humidity | Pressure | Rain* | Wind** | Luminosity | Snow |
|---|---|---|---|---|---|---|---|
| 1777755252 | 23.33° C | 45% | 1022.3 hPa | 0 mm | - | 786 W/m² | - |
| 1777754613 | 22.78° C | 44% | 1022.4 hPa | 0 mm | - | 810 W/m² | - |
| 1777754060 | 23.33° C | 46% | 1022.5 hPa | 0 mm | - | 830 W/m² | - |
| 1777753422 | 22.78° C | 44% | 1022.6 hPa | 0 mm | - | 849 W/m² | - |
| 1777752858 | 22.78° C | 47% | 1022.8 hPa | 0 mm | - | 874 W/m² | - |
| 1777752205 | 22.22° C | 48% | 1022.8 hPa | 0 mm | - | 884 W/m² | - |
| 1777751641 | 22.22° C | 46% | 1022.9 hPa | 0 mm | - | 900 W/m² | - |
| 1777751057 | 22.22° C | 46% | 1023 hPa | 0 mm | - | 918 W/m² | - |
| 1777750426 | 22.22° C | 50% | 1023 hPa | 0 mm | - | 930 W/m² | - |
| 1777749849 | 22.22° C | 45% | 1023 hPa | 0 mm | - | 940 W/m² | - |
| 1777749215 | 22.22° C | 50% | 1023 hPa | 0 mm | - | 949 W/m² | - |
| 1777748622 | 21.67° C | 51% | 1023.1 hPa | 0 mm | - | 951 W/m² | - |
| 1777748051 | 21.67° C | 52% | 1023.4 hPa | 0 mm | - | 970 W/m² | - |
| 1777747456 | 21.11° C | 52% | 1023.4 hPa | 0 mm | - | 1005 W/m² | - |
| 1777746860 | 20.56° C | 54% | 1023.4 hPa | 0 mm | - | 1007 W/m² | - |
| 1777745623 | 21.11° C | 58% | 1023.7 hPa | 0 mm | - | 1065 W/m² | - |
| 1777745055 | 21.11° C | 56% | 1023.7 hPa | 0 mm | - | 960 W/m² | - |
| 1777744404 | 20.56° C | 56% | 1024 hPa | 0 mm | - | 956 W/m² | - |
| 1777743840 | 20.56° C | 58% | 1024.1 hPa | 0 mm | - | 939 W/m² | - |
| 1777743206 | 20.56° C | 56% | 1024.3 hPa | 0 mm | - | 925 W/m² | - |
| 1777742033 | 20° C | 58% | 1024.5 hPa | 0 mm | - | 893 W/m² | - |
| 1777741456 | 20° C | 60% | 1024.6 hPa | 0 mm | - | 881 W/m² | - |
| 1777739033 | 18.89° C | 62% | 1024.8 hPa | 0 mm | - | 800 W/m² | - |
| 1777738461 | 18.89° C | 60% | 1024.9 hPa | 0 mm | - | 782 W/m² | - |
| 1777737207 | 18.89° C | 60% | 1024.7 hPa | 0 mm | - | 726 W/m² | - |
* Rain latest hour (hover to see other rain measurements)
** Current wind speed in m/s (hover to see current wind gust speed)